Weather in Tulyushka

Russia / Irkutsk Oblast     54°27′06″N   101°11′00″E
temp.,
°C
wind,
m/s
gust,
m/s
humid.,
%
clouds,
%
prec.,
mm/h
press.,
hPa
HPBL,
m
26 february, fri
fri2623:00−11nw61492100 1.9 1016879
02:00−13nw31090100 2.1 1019490
05:00−14nnw2896100 0.1 1022444
08:00−15nnw51094100 0.6 1026785
11:00−17n51094100 0.6 1028764
14:00−16nnw3693100 1.3 1027808
17:00−16nnw2486100 0.3 1028766
20:00−21nnw1193100 0.3 103020
27 february, sat
sat2723:00−19nw2498100 0.2 1033110
02:00−22nw31287100 0.3 1035958
05:00−26nnw1194100 0.0 103819
08:00−25ssw2297100 0.0 103942
11:00−23s249398 0.1 1038216
14:00−19s248499 0.1 1036666
17:00−19wsw0282100 0.0 1035664
20:00−22sse2294100 0.0 103821
28 february, sun
sun2823:00−22s2298100 0.0 103942
02:00−23ssw2295100 0.0 103928
05:00−23wsw1197100 0.0 103920
08:00−24sw1192100 0.0 104020
11:00−20sw1291100 0.0 1041199
14:00−18sw1186100 0.1 1040619
17:00−18sse1286100 0.1 1039465
20:00−21se1193100 0.1 104020
1 march, mon
mon123:00−22s1296100 0.0 104120
02:00−22s1199100 0.1 103920
05:00−22sse1199100 0.2 103820
08:00−24s129999 0.2 103820
11:00−21sse12965 0.0 1035173
14:00−17sse239047 0.0 1031296
17:00−16ese239470 0.0 1028208
20:00−18ese249583 0.0 102790
2 march, tue
tue223:00−19ese2596100 0.0 1025141
02:00−19ese2593100 0.0 1022150
05:00−18ese2698100 0.4 1020223
08:00−18ese2597100 0.8 1019206
11:00−16se2495100 0.2 1017239
14:00−12se2394100 0.5 1015273
17:00−11ese2495100 0.1 1013220
20:00−11se2596100 0.5 1013178